Theta_e
326 326 326 325 324 325 324 323 323 321 320 322 326 327 327 328 327 327 327 326 326 325 324 325 325 326 326 326 326 326 326 324 323 323 323 324 324 325 324 324 324 322 316 312 311 312 313 314 313 313 315 316 317 318 321 321 322 323 326 328 324 323 323 321 322 320 320 320 318 318 318 318 317 317 316 315 317 317 318 320 322 324 328 336 339 337 338 337
325 326 326 325 324 325 325 323 323 321 321 322 324 327 327 327 327 327 327 326 326 325 325 325 325 326 326 326 326 326 325 323 323 323 323 324 323 324 324 322 322 320 316 312 312 313 314 314 314 314 315 316 318 320 321 321 320 322 325 326 325 325 322 319 319 318 320 319 317 318 318 318 318 317 317 315 317 316 318 319 321 325 325 332 339 337 337 337
325 325 326 325 324 325 324 323 323 321 321 322 324 326 328 327 327 327 326 327 326 326 325 325 326 326 326 326 326 326 324 322 322 323 323 323 323 323 322 321 320 317 313 311 310 312 314 314 314 314 314 315 318 320 321 321 320 320 323 326 325 322 319 317 317 318 319 318 317 318 318 319 318 317 316 316 317 315 317 318 318 324 324 329 338 338 337 337
325 325 326 325 324 325 324 323 322 321 321 322 324 327 328 327 327 326 326 326 326 326 325 325 325 325 326 325 325 325 323 323 324 323 322 322 323 323 321 320 318 315 312 310 309 310 313 314 314 314 315 314 316 319 320 320 319 319 322 324 322 318 318 316 316 317 318 318 317 318 319 318 317 316 316 316 317 315 315 317 317 321 325 330 337 338 337 337
324 325 325 325 324 324 324 322 322 321 321 322 324 327 327 326 326 326 326 326 326 326 325 325 324 325 326 324 324 323 322 327 328 322 321 321 322 323 320 319 316 315 313 310 310 311 313 314 314 314 315 314 315 318 319 319 319 320 321 319 318 318 318 316 315 317 318 318 317 318 318 317 317 316 315 316 316 315 314 317 317 319 325 331 336 337 336 337
324 325 325 324 324 324 323 322 321 322 321 322 325 327 327 326 326 326 326 325 325 325 324 324 324 325 325 324 324 321 323 329 324 319 322 320 321 323 320 318 316 316 313 310 312 314 313 313 313 314 314 314 315 317 318 319 319 320 320 316 316 317 316 315 315 317 318 318 317 317 317 316 316 315 316 316 316 316 315 315 320 324 327 332 336 336 336 337
324 325 324 323 323 323 322 321 321 322 322 323 326 327 326 326 325 325 325 325 325 324 324 324 324 324 323 322 322 320 323 324 316 316 321 320 321 322 319 317 315 316 314 313 315 314 313 313 313 314 314 314 315 317 317 318 319 319 319 317 316 315 314 314 315 315 317 317 317 316 316 316 316 316 316 317 315 315 315 314 319 327 329 333 336 335 336 337
322 323 324 323 323 323 321 321 322 322 323 324 326 326 325 325 325 325 324 325 324 324 323 322 322 321 321 321 319 320 322 321 315 315 319 320 321 319 316 316 315 315 314 315 317 313 312 313 313 314 314 314 315 316 317 318 318 318 318 316 315 314 313 313 314 314 315 315 315 316 316 316 316 315 315 316 315 315 316 315 318 326 330 333 335 334 336 336
321 322 323 323 323 322 321 322 323 323 324 325 325 325 325 324 324 324 323 324 323 322 322 321 321 320 320 319 318 322 322 319 317 315 317 320 320 316 313 314 314 313 314 316 316 313 313 313 313 314 314 315 315 316 317 318 317 317 318 316 314 313 312 313 313 314 315 314 315 317 316 315 315 314 316 316 315 315 316 318 320 324 328 332 334 334 335 336
320 321 323 323 322 322 322 322 323 323 324 325 325 325 324 324 324 323 323 323 322 321 321 321 320 318 318 318 319 324 320 317 318 314 316 319 318 316 313 314 313 312 314 315 314 314 313 313 314 315 315 315 315 317 318 317 318 317 316 315 314 314 314 314 314 314 314 315 315 316 316 315 314 315 316 315 314 314 316 318 319 321 324 327 331 332 332 334
320 320 322 322 322 322 322 322 323 324 324 324 324 324 324 323 323 323 322 322 321 320 320 320 318 316 317 318 320 322 317 318 319 313 314 317 316 316 314 314 313 312 314 314 314 314 313 313 314 314 315 314 314 317 317 317 317 316 315 315 314 314 314 314 314 314 315 315 314 316 316 315 314 315 316 315 314 314 315 318 319 319 321 323 327 331 330 330
320 321 321 322 321 322 322 323 323 323 324 323 324 323 323 323 323 322 322 321 320 320 320 319 316 314 316 319 320 319 316 317 317 313 317 319 315 315 314 313 313 312 313 314 314 314 313 313 313 314 314 313 314 316 317 317 316 315 316 315 314 314 315 314 314 314 316 315 314 315 316 315 315 316 316 314 314 315 315 317 319 318 319 321 324 328 329 328
320 321 322 322 321 322 322 322 322 322 323 323 322 322 322 322 322 322 321 320 319 319 319 317 314 313 317 321 319 316 315 315 314 314 318 318 313 313 311 311 313 312 311 313 314 313 313 313 312 313 313 313 314 314 315 316 316 316 316 316 315 315 315 315 315 315 316 315 314 315 316 317 316 316 315 313 314 315 315 317 319 319 319 322 325 329 331 328
320 321 322 322 322 322 322 322 322 322 323 323 322 322 322 321 321 321 319 319 318 317 318 316 312 313 319 321 317 314 313 314 315 316 317 315 313 314 313 311 312 311 312 313 313 312 312 313 312 312 312 313 313 313 314 316 316 316 316 316 317 317 315 315 315 315 315 314 313 314 316 318 317 315 314 313 314 314 315 317 318 319 319 323 328 330 333 330
320 321 321 321 321 321 322 322 322 322 322 322 321 321 321 320 320 319 318 318 317 317 316 314 312 315 318 316 314 313 312 313 316 316 315 314 314 313 312 311 311 311 313 313 311 311 312 312 312 311 312 312 312 313 315 316 316 316 316 316 318 318 316 316 315 315 316 314 313 314 315 317 315 314 313 314 314 314 315 315 317 318 318 320 325 329 331 330
321 321 321 321 321 321 322 322 322 322 321 321 320 320 320 319 319 318 317 317 317 317 315 312 312 315 318 313 312 313 312 313 315 314 313 313 313 313 312 312 312 312 313 312 311 311 311 310 312 313 313 312 312 314 316 316 315 316 317 317 318 317 316 316 315 315 316 314 313 314 315 315 314 314 313 313 314 313 315 315 315 317 318 319 322 324 326 328
321 321 321 320 320 321 321 321 321 321 320 320 319 319 318 318 317 315 315 316 316 315 313 312 312 316 317 313 312 313 312 313 314 312 312 312 313 313 312 312 312 312 312 311 310 310 310 310 312 314 313 312 312 314 316 315 314 315 316 317 318 316 315 315 315 316 317 315 314 314 314 315 315 314 313 313 314 313 314 314 315 315 316 318 319 320 321 323
320 321 320 320 320 321 321 321 320 319 319 318 317 317 317 316 314 314 315 316 314 313 312 312 312 317 316 311 313 314 313 314 313 312 312 312 313 313 312 312 312 312 311 310 310 310 310 312 313 313 313 313 312 313 315 315 314 314 315 316 317 316 315 316 316 316 317 316 316 315 314 315 315 314 313 314 314 314 315 315 315 316 316 317 318 318 318 319
320 320 320 320 320 320 320 320 319 319 317 317 316 316 315 314 314 314 315 314 312 313 312 311 312 316 313 310 313 314 314 314 313 312 312 312 312 312 312 312 312 311 310 311 310 310 311 314 313 313 313 312 312 312 314 316 315 316 317 316 317 315 314 316 316 315 316 315 316 316 314 314 315 315 314 314 314 315 315 316 317 316 316 317 318 318 319 319
320 320 320 320 320 319 319 319 318 317 316 316 315 315 315 314 315 315 313 311 310 312 312 310 312 313 310 310 313 314 314 313 313 312 312 312 312 312 312 312 313 312 311 311 312 311 312 314 314 312 312 312 312 312 314 315 317 318 317 317 319 317 314 316 315 315 315 315 315 316 316 316 316 316 316 314 315 316 316 316 317 317 317 317 318 320 320 320
320 320 320 319 319 319 318 318 317 316 316 315 314 315 315 314 316 316 312 310 310 312 311 310 312 312 311 312 312 313 313 313 313 312 312 312 312 313 312 312 313 312 311 312 312 312 312 314 314 312 312 313 312 313 314 314 315 317 316 317 319 318 315 315 315 314 315 315 315 316 315 315 316 317 317 315 314 316 316 316 316 316 318 319 319 321 322 324
319 319 319 319 319 318 317 317 316 315 315 315 314 314 314 314 314 313 312 311 311 313 311 310 311 312 312 312 312 313 313 313 314 314 312 311 312 313 313 312 313 312 311 311 313 314 313 313 314 312 312 313 313 313 313 314 316 317 317 317 318 318 316 315 315 314 314 314 315 317 317 316 317 317 317 317 315 315 316 316 317 317 317 317 319 321 323 329
318 318 318 318 318 317 317 316 315 315 315 315 315 314 313 313 312 311 311 312 312 312 311 311 311 312 312 312 313 313 312 312 314 314 312 311 313 314 313 312 312 312 310 310 314 315 314 314 313 313 312 313 314 313 313 314 315 318 318 316 316 318 317 316 314 314 314 313 315 318 318 316 316 316 317 316 316 317 319 320 321 321 320 320 323 324 324 329
318 318 318 318 318 317 316 315 315 315 315 315 315 315 314 313 311 310 311 310 310 311 310 311 312 312 312 312 313 313 312 312 314 314 312 312 313 313 313 312 312 311 310 310 312 315 315 313 313 315 314 313 314 313 315 314 314 320 321 318 318 318 318 318 315 313 313 313 315 315 315 317 316 314 316 316 317 320 321 321 321 321 322 322 325 324 323 325
318 318 318 317 317 316 315 315 315 314 314 315 315 315 315 313 311 312 311 310 311 311 310 312 314 314 312 312 312 313 313 313 314 314 312 312 313 313 313 312 312 311 310 311 312 314 314 311 313 315 313 315 315 313 317 317 315 318 322 320 318 318 319 318 315 314 314 315 318 314 313 321 321 313 314 316 318 319 319 319 318 318 320 321 320 320 321 322
318 317 317 316 316 315 314 315 315 314 314 315 315 316 315 313 312 315 313 311 312 312 310 312 314 314 312 313 313 313 313 313 313 313 312 313 313 313 312 312 313 311 311 313 314 316 313 309 313 318 316 319 318 315 318 319 315 315 322 325 319 318 320 317 315 318 316 315 317 314 314 319 320 315 314 317 316 316 316 316 316 316 319 320 319 322 324 324
317 317 316 316 315 315 315 315 314 314 314 315 315 316 316 314 313 315 314 314 314 312 310 310 310 312 313 313 312 312 313 313 312 312 312 313 312 312 312 312 313 313 313 314 315 315 312 310 315 319 318 320 318 316 317 317 314 316 324 328 319 318 322 319 317 320 320 318 315 315 315 316 318 319 316 315 314 315 316 315 315 317 319 320 321 325 326 324
317 316 316 315 315 314 314 314 314 314 314 314 315 316 317 314 312 313 314 317 316 311 310 308 307 312 313 312 312 312 312 313 313 313 311 310 311 311 312 313 313 314 315 314 315 316 314 314 317 318 318 319 318 319 324 321 316 319 325 327 320 318 323 322 321 321 320 319 317 317 316 315 318 320 315 315 314 313 316 315 316 318 319 320 321 323 323 322
316 316 316 315 314 314 313 314 314 314 314 314 315 316 315 312 313 313 314 316 314 310 309 309 309 312 313 311 312 313 312 313 314 314 311 310 311 311 312 313 312 315 317 315 318 319 316 314 315 319 319 319 317 319 326 327 320 320 324 327 324 323 323 322 325 323 317 317 321 320 317 315 319 321 314 314 314 313 315 315 317 320 321 322 321 321 321 321
316 315 315 315 314 313 313 313 313 313 314 315 315 315 313 312 313 313 314 314 312 310 309 310 311 313 312 311 312 313 313 313 312 312 311 311 312 311 313 313 313 319 322 320 319 316 312 310 314 319 317 315 315 315 322 326 321 321 323 323 324 323 323 321 324 323 317 319 324 321 317 314 317 323 318 314 315 315 315 317 318 320 320 320 321 320 320 321
315 315 315 314 313 313 313 313 313 313 314 315 314 313 313 313 312 313 314 314 313 311 309 310 312 312 311 312 312 313 314 313 312 312 312 312 312 311 313 314 315 320 322 322 320 315 312 313 316 316 312 312 315 316 319 321 320 323 323 320 320 320 319 319 319 318 319 322 319 317 319 316 317 321 317 312 315 315 316 318 318 318 319 320 320 319 319 320
315 315 314 313 313 312 313 313 313 314 314 314 313 312 312 312 312 314 313 312 314 312 310 311 312 312 312 313 313 314 314 313 312 312 312 313 312 312 313 315 317 317 316 318 321 319 317 317 317 315 312 313 317 317 317 318 319 323 321 318 323 322 318 319 320 319 321 320 314 313 317 318 317 316 313 312 314 315 318 319 318 318 319 320 320 320 320 321
314 314 313 312 313 313 313 313 313 314 314 313 312 312 313 312 313 314 312 312 314 312 311 312 312 312 313 313 314 315 315 314 312 312 313 313 313 313 314 315 316 316 315 317 320 322 321 318 317 318 314 313 316 316 316 318 319 320 317 318 325 323 318 319 320 319 319 317 314 313 316 318 317 314 314 315 313 315 319 320 321 320 320 320 320 320 322 322
314 313 312 312 313 314 313 313 313 313 313 313 312 312 314 313 314 314 312 312 313 311 311 312 313 312 312 314 315 315 317 316 313 312 314 314 313 313 314 315 316 315 315 317 320 321 321 318 316 318 316 314 315 316 317 319 319 321 320 320 322 320 319 320 319 322 323 318 313 312 315 318 317 314 314 313 312 313 314 316 319 320 320 321 321 321 322 322
313 312 312 312 313 314 314 313 313 313 313 313 312 313 314 314 315 315 313 312 311 311 311 312 313 313 313 316 315 315 318 318 314 313 314 314 313 314 314 314 315 315 316 317 317 316 317 320 318 317 317 317 317 317 317 317 318 321 323 321 319 319 322 321 318 321 325 321 316 316 319 319 316 314 313 311 312 312 311 313 316 317 318 319 320 320 320 321
312 312 312 313 313 313 314 314 312 312 313 312 312 313 313 313 314 314 314 312 311 312 312 312 313 313 315 318 317 315 318 318 316 315 315 315 314 314 314 314 315 316 316 316 317 315 317 321 318 316 316 315 314 316 315 316 318 320 321 320 317 319 324 322 317 316 318 320 320 317 318 317 313 312 312 311 312 310 309 312 313 315 318 319 321 321 321 321
312 312 312 313 313 312 313 313 311 312 315 312 311 314 313 314 318 316 314 312 312 312 312 313 314 313 315 318 317 317 318 318 317 316 315 315 315 314 313 314 314 315 316 316 317 317 318 319 316 317 318 314 312 316 316 316 318 320 322 321 317 318 320 318 315 315 315 316 317 316 316 315 312 312 312 311 311 310 309 311 313 316 319 320 322 322 321 322
312 312 312 313 312 312 312 312 311 314 316 312 312 316 315 317 320 317 314 314 314 313 312 313 314 314 316 316 316 317 317 317 317 317 316 315 316 315 313 314 315 315 316 316 318 320 321 322 317 316 317 314 312 317 317 315 316 318 320 320 317 318 319 314 313 318 319 315 314 316 314 313 314 314 314 312 311 311 310 310 314 317 318 320 322 322 321 320
312 312 312 313 312 312 312 312 312 314 316 313 313 317 319 319 319 316 314 314 314 313 313 314 314 313 315 315 315 317 316 316 316 317 317 315 316 316 313 315 316 314 314 315 320 323 323 325 320 315 315 315 314 316 317 317 316 314 315 316 317 318 318 318 316 318 321 317 315 316 315 318 321 317 315 314 311 311 311 311 314 316 318 319 320 320 320 319
312 312 313 313 312 312 312 312 313 314 315 313 313 317 320 319 318 316 314 314 315 314 314 315 315 314 315 315 315 316 316 317 316 316 317 316 315 315 313 315 316 314 314 318 322 321 318 325 324 316 315 317 317 317 318 318 316 314 315 315 315 315 315 318 318 318 319 317 316 315 315 323 323 314 314 314 310 311 311 311 314 315 317 319 319 320 319 320
313 313 314 313 312 312 312 313 314 313 313 313 313 317 319 317 317 317 317 317 318 318 316 315 315 315 315 315 315 315 316 318 316 316 318 315 314 315 315 315 315 314 315 318 320 319 318 322 322 317 316 318 318 317 316 317 318 317 316 314 315 316 317 318 318 318 317 315 318 316 317 326 319 308 312 313 311 313 311 312 316 316 318 320 319 319 319 320
313 314 314 312 312 313 314 314 313 313 313 313 315 319 319 316 317 318 318 318 319 320 317 315 315 315 316 316 315 315 316 318 317 316 318 317 314 315 317 315 313 313 314 317 318 320 322 323 320 317 317 317 316 315 312 314 318 318 316 317 317 315 316 317 319 321 316 313 316 314 319 331 322 310 312 314 314 316 314 315 316 316 318 319 318 319 320 320
314 313 313 312 312 314 314 314 314 314 314 314 317 319 317 316 317 318 317 318 319 320 318 316 315 315 317 316 316 316 315 317 318 316 317 318 315 316 319 316 313 313 314 316 318 319 321 323 321 318 317 315 314 315 314 314 317 318 317 319 318 317 318 317 318 322 318 317 318 313 317 328 323 314 313 313 314 314 313 315 316 316 318 317 317 319 320 319
312 313 313 312 312 314 315 314 314 314 314 316 318 318 318 317 317 317 316 317 318 318 319 319 316 315 319 318 315 315 315 316 317 317 320 321 316 317 320 316 311 313 315 315 315 316 319 321 321 320 320 318 317 317 317 316 316 318 319 318 317 320 322 318 317 317 318 323 323 316 320 326 319 314 314 312 312 312 311 313 315 317 318 316 316 318 319 317
312 313 314 312 311 313 315 314 313 313 315 317 317 317 319 319 318 319 319 318 318 317 319 320 319 318 319 318 315 315 316 318 319 319 322 322 317 318 323 320 313 316 322 322 317 316 321 323 321 321 320 319 319 318 319 320 317 316 320 319 317 320 322 318 318 318 319 324 322 316 322 323 314 312 314 312 312 312 311 311 313 318 318 315 317 318 317 315
315 314 314 313 312 313 314 314 314 315 315 316 316 316 317 317 319 320 320 319 319 319 320 321 321 319 318 318 317 316 316 319 321 318 319 321 319 317 319 320 318 320 324 325 319 318 322 321 318 319 318 316 317 318 319 321 319 317 320 320 319 320 320 318 319 320 319 322 321 320 321 319 314 314 314 314 313 312 311 311 314 319 319 317 318 317 315 314
314 315 314 314 313 313 314 314 315 315 315 315 315 315 316 316 317 319 319 318 318 319 320 319 318 317 317 317 317 316 316 318 320 318 317 320 319 314 314 316 318 320 320 318 318 321 322 320 318 318 318 317 318 320 319 319 318 317 318 318 318 319 319 319 319 318 318 319 319 321 321 317 315 316 316 317 314 311 311 310 312 317 318 318 318 316 314 314
310 313 313 312 313 314 314 314 315 315 315 314 313 314 316 316 316 317 319 319 319 319 320 319 318 318 317 317 317 317 317 317 319 319 318 318 316 314 314 315 316 318 318 315 318 322 319 317 320 319 317 321 324 323 322 319 317 317 317 317 317 318 319 319 318 317 318 319 318 318 320 319 315 315 318 318 314 311 310 309 312 317 319 317 317 315 314 314
308 310 310 310 312 313 314 314 315 315 315 314 314 315 315 315 315 316 319 319 318 319 320 318 318 319 318 317 317 317 317 317 317 320 318 316 315 316 316 315 314 317 318 315 316 320 317 316 320 319 316 321 326 325 322 320 319 319 319 318 318 318 318 317 316 315 316 318 317 316 319 319 317 317 318 317 316 314 311 309 312 318 320 317 315 314 313 313
304 306 308 311 313 313 313 314 315 315 314 313 314 315 315 315 315 316 318 318 316 317 319 318 318 319 319 319 317 318 317 315 317 319 318 315 314 315 315 314 314 316 316 314 314 316 316 317 320 318 316 319 323 323 322 323 322 320 321 322 321 319 318 317 316 316 315 316 316 316 318 318 316 320 321 318 318 316 313 310 310 315 318 316 314 314 313 313
298 299 302 309 314 313 312 314 314 315 314 313 314 315 315 314 315 317 319 319 318 317 318 319 319 319 320 319 318 319 319 318 319 318 316 315 314 315 317 316 314 314 315 315 314 314 315 319 320 318 316 319 321 321 321 323 321 318 320 325 325 321 319 317 316 316 315 316 316 317 318 315 314 320 322 318 317 317 315 312 310 313 316 316 314 313 312 312
298 298 299 306 313 313 312 314 314 314 314 312 313 315 314 315 316 317 318 320 321 320 319 319 319 319 319 320 321 322 323 323 321 318 317 317 316 319 322 317 312 313 315 316 317 317 317 319 321 319 317 320 320 320 320 318 316 314 317 321 324 321 319 317 317 317 316 316 316 316 316 313 315 320 320 316 316 316 316 313 312 314 316 314 313 313 311 311
Wind_Speed
37 38 39 40 39 36 36 37 36 35 36 37 38 35 35 34 32 30 29 29 28 30 32 29 28 26 25 24 22 19 16 12 9 8 7 8 12 11 6 5 5 6 3 5 10 11 11 10 9 8 6 3 2 2 2 2 1 1 2 2 4 3 4 4 4 4 6 7 6 8 7 7 6 3 2 2 2 5 5 5 6 8 9 10 15 21 25 25
36 36 38 39 38 37 37 37 36 35 35 36 39 36 35 35 33 31 30 28 27 28 31 30 29 27 25 23 21 19 15 10 6 7 12 13 12 11 7 5 5 5 2 7 10 10 8 8 9 7 4 2 3 3 2 2 2 2 3 3 4 3 1 1 6 5 6 9 8 8 7 5 8 6 3 3 4 5 6 5 6 8 7 9 15 19 22 23
36 35 37 38 39 39 37 37 35 35 35 36 38 37 35 35 34 33 31 29 27 27 30 30 29 28 25 22 19 18 13 5 2 7 14 16 14 11 8 6 6 4 1 5 6 8 10 12 14 10 3 3 3 3 3 2 3 3 2 2 3 3 4 6 8 5 5 11 10 8 4 3 8 7 3 4 6 6 6 6 7 8 8 8 12 17 19 20
36 36 38 39 39 39 37 37 36 35 36 36 38 37 35 35 35 33 32 30 28 26 28 29 28 27 24 22 18 15 10 3 1 7 13 15 15 13 9 7 7 3 1 4 5 9 15 16 17 11 4 5 4 4 4 3 2 2 3 2 3 2 6 6 7 6 5 8 9 8 5 5 7 6 3 5 6 5 6 8 9 9 12 11 11 15 18 18
36 37 39 40 39 38 37 37 37 36 36 37 38 37 35 35 35 34 33 30 28 26 27 28 27 26 25 24 20 16 10 1 3 9 13 13 15 16 10 8 9 2 3 3 5 9 14 15 14 8 5 4 5 5 5 6 4 2 2 1 5 3 5 5 5 6 4 5 9 8 7 5 5 4 5 6 3 3 2 3 6 8 14 14 13 15 16 16
36 39 40 41 39 38 38 37 37 37 37 38 38 36 35 35 34 34 33 31 29 26 25 26 27 27 27 25 21 16 7 2 3 8 13 12 14 16 11 10 9 3 5 3 5 8 10 11 11 7 5 5 6 6 5 7 6 3 2 3 5 5 5 3 4 4 5 5 9 6 6 6 5 4 5 4 2 3 2 4 5 8 16 18 17 15 13 13
38 41 41 41 39 38 38 37 37 37 38 40 38 35 35 35 34 34 33 31 29 26 26 26 27 27 25 23 17 10 5 3 3 3 10 13 14 15 13 12 10 7 6 5 8 8 8 10 10 6 5 6 6 6 8 7 7 5 2 4 3 5 5 4 3 2 5 5 5 5 7 6 6 4 1 0 5 6 3 4 7 12 19 18 15 13 12 14
39 43 42 41 40 38 38 38 37 37 39 39 37 36 36 34 33 33 32 31 29 28 26 26 27 25 25 23 13 5 5 4 4 2 7 14 17 17 16 15 13 11 10 12 12 9 7 10 11 8 6 6 6 7 10 6 6 7 3 5 3 4 5 5 5 2 5 4 2 5 6 5 4 3 1 3 6 7 5 5 6 9 15 14 11 11 11 13
39 43 44 42 40 39 39 38 38 39 39 37 36 35 35 34 33 33 32 30 29 29 26 26 27 25 26 20 8 4 5 6 8 4 7 17 20 19 18 17 17 15 14 16 14 11 8 8 11 10 6 6 7 8 9 6 5 6 4 5 5 5 4 5 5 3 3 2 1 5 6 5 3 2 1 3 7 8 6 6 5 6 9 9 9 10 10 11
41 44 46 44 40 39 40 39 39 40 40 38 36 35 34 34 33 32 32 31 30 29 27 27 27 26 25 17 7 5 5 10 11 6 9 16 19 20 20 18 18 18 15 12 13 14 10 10 12 8 3 3 6 7 8 7 4 5 6 5 7 6 4 5 6 4 3 2 1 3 6 4 2 2 1 3 7 8 7 6 5 6 6 7 8 9 11 11
42 44 46 46 42 41 41 39 39 40 40 36 36 35 34 33 32 32 31 31 30 29 28 27 28 28 22 14 9 5 4 13 15 8 10 15 20 23 22 18 16 18 15 9 14 18 15 19 17 7 1 2 5 3 5 4 0 9 10 6 6 6 5 4 6 5 3 2 3 2 5 4 3 1 3 5 5 6 8 7 6 6 6 7 7 8 10 11
44 46 47 47 45 43 42 41 40 41 39 35 35 34 33 32 31 30 30 31 30 29 29 28 29 27 19 10 8 3 3 12 18 12 12 17 21 22 19 16 15 19 15 9 15 20 21 23 17 9 4 1 2 2 3 2 2 7 9 6 4 5 5 4 5 4 2 2 3 1 4 2 3 4 5 8 6 6 7 7 7 6 6 6 7 7 7 10
47 48 47 48 47 44 43 42 41 41 39 36 35 34 33 32 30 29 30 30 29 30 31 30 30 25 16 6 4 3 2 11 19 16 16 17 16 19 18 17 18 20 16 13 16 17 20 21 13 9 7 3 2 2 1 4 4 6 5 6 5 4 4 4 4 4 2 1 2 0 1 4 8 7 6 8 7 7 7 7 7 6 6 6 6 6 6 9
50 50 48 48 47 45 44 42 40 40 39 37 35 34 34 32 31 30 28 28 27 28 30 31 27 19 10 2 1 6 4 10 19 20 21 19 15 17 18 18 17 17 17 18 18 14 13 16 11 7 7 4 1 3 2 4 4 5 5 4 5 3 4 4 4 6 3 0 2 2 1 4 4 7 6 6 6 8 7 7 7 6 6 5 6 6 6 7
52 51 49 47 47 46 44 43 41 40 40 38 36 34 34 31 30 29 27 27 25 26 28 27 21 12 5 1 4 10 6 9 17 21 23 21 18 14 15 19 16 15 17 19 20 15 11 11 7 5 5 1 1 2 2 4 3 5 5 4 5 4 4 3 2 5 3 1 4 2 2 2 3 6 5 5 5 6 6 7 8 7 7 6 6 6 6 7
53 51 49 47 47 45 44 44 42 40 40 39 37 35 34 31 29 28 27 25 24 28 27 21 14 7 4 1 7 12 8 9 15 19 21 21 19 16 19 20 13 14 16 17 18 16 12 8 4 3 3 2 3 4 3 3 3 5 5 4 5 5 4 2 1 2 2 3 4 4 2 1 2 4 5 5 5 5 5 6 7 8 7 7 6 6 6 6
53 51 49 49 48 45 45 45 43 43 42 40 39 38 35 30 28 26 25 24 25 26 19 13 11 4 2 3 7 10 10 10 13 17 19 19 20 22 22 14 7 12 13 13 13 11 9 7 3 1 3 3 4 4 4 6 6 5 5 4 5 6 6 4 0 2 3 3 5 5 4 2 4 6 5 6 7 6 6 6 6 7 7 7 7 7 7 7
54 51 50 51 49 47 46 45 46 45 44 44 40 39 36 31 30 26 24 26 26 21 12 7 9 1 1 8 8 10 15 15 16 18 19 17 19 23 22 11 6 10 9 7 7 7 7 5 2 3 4 5 5 6 5 6 7 6 5 4 4 6 7 7 3 4 7 4 4 7 6 6 4 6 6 7 7 8 7 7 6 7 7 7 7 7 7 7
54 51 51 51 49 48 48 49 49 47 48 46 42 41 37 30 25 21 22 23 18 10 4 7 11 2 4 12 10 10 18 21 17 17 19 17 19 21 19 13 8 9 7 4 5 7 6 3 3 5 6 7 8 8 6 5 7 7 7 5 6 7 5 4 3 4 7 5 5 8 7 8 6 6 8 8 8 8 8 7 6 6 6 7 7 6 7 7
53 52 52 49 50 50 50 52 51 53 53 48 47 38 25 20 13 10 13 13 9 5 2 12 13 2 3 11 11 14 20 19 12 11 18 20 22 19 11 9 7 6 7 6 5 6 5 4 5 6 7 9 9 9 8 7 7 8 8 6 6 7 3 2 2 0 1 3 6 8 6 7 7 7 8 9 8 7 7 7 6 7 6 6 7 7 8 7
53 52 51 49 52 52 52 54 53 55 52 53 51 23 10 17 9 11 14 7 12 12 1 17 18 3 4 11 18 21 16 10 7 9 17 20 23 18 7 7 8 6 8 8 6 6 6 6 6 8 8 7 9 10 10 10 8 7 8 6 5 5 2 2 2 1 1 2 5 8 7 8 7 7 6 7 9 8 9 9 8 8 7 7 7 8 8 6
54 52 53 52 53 54 55 55 54 55 51 51 39 8 11 16 2 17 22 5 12 16 4 22 20 2 6 12 17 18 12 7 7 9 14 16 15 12 8 8 8 7 9 9 6 6 6 7 7 9 8 6 9 10 8 7 7 6 7 6 4 4 4 3 3 1 1 1 1 2 4 7 7 7 7 7 8 8 10 11 9 9 9 8 8 8 8 7
54 54 55 55 55 56 56 55 54 52 46 42 25 6 16 17 10 32 22 6 7 8 6 21 15 4 7 7 7 7 10 9 7 8 14 15 10 8 10 10 9 9 10 10 7 6 5 6 6 9 9 9 9 8 5 4 5 3 6 6 5 5 5 1 1 0 2 1 2 2 2 5 6 6 7 9 9 6 7 8 7 7 8 7 6 5 7 9
55 56 56 56 58 56 55 55 50 43 39 40 29 16 19 23 31 39 16 5 8 2 3 13 7 5 6 5 4 4 7 7 5 10 15 15 9 7 10 11 10 9 10 12 10 7 5 2 2 4 9 10 9 8 6 3 4 3 1 4 5 7 4 3 5 4 2 1 1 2 3 5 5 7 8 7 7 5 5 6 5 3 4 3 3 2 3 6
57 56 56 59 57 56 58 49 36 35 34 32 29 19 20 29 31 26 10 6 5 3 3 6 2 4 5 6 4 2 6 4 2 7 15 15 10 7 7 9 8 9 12 13 11 7 4 1 2 1 7 8 7 7 7 5 3 2 1 1 4 8 7 8 9 6 3 1 3 3 1 6 5 9 10 5 5 6 5 6 7 5 4 3 3 3 4 5
58 55 58 59 56 59 52 27 23 36 28 18 27 21 19 28 24 15 6 4 3 3 6 6 2 5 7 5 4 4 7 2 3 4 13 12 7 5 6 6 3 7 12 9 5 3 1 1 1 2 7 7 6 5 6 6 3 3 2 4 3 10 10 11 10 5 4 3 2 3 4 4 4 4 7 6 6 7 4 4 7 6 6 5 5 5 6 6
58 57 60 58 60 59 34 15 27 34 17 18 30 22 17 23 17 9 3 2 4 5 6 3 1 6 7 4 5 6 5 5 3 2 5 6 4 3 4 7 4 4 5 4 2 1 2 1 1 2 4 5 5 3 5 8 4 2 3 4 6 12 9 10 9 4 3 2 2 1 2 2 4 5 2 7 7 6 4 6 7 5 6 6 5 5 5 5
57 60 60 57 62 51 26 25 33 22 15 27 30 19 19 21 12 5 3 3 4 4 5 2 1 6 4 1 4 3 3 9 7 2 1 3 3 3 2 7 8 3 1 3 5 2 2 2 2 4 4 4 4 1 2 5 4 2 6 3 5 9 7 7 6 3 1 3 1 3 2 2 4 6 1 4 6 6 7 8 7 6 7 6 6 5 4 4
58 59 57 58 55 35 24 33 31 19 21 27 23 19 20 16 7 2 3 4 3 3 4 4 4 6 4 3 3 2 3 5 3 3 4 2 1 1 1 5 7 6 4 2 5 1 1 2 1 3 4 3 2 2 4 1 3 3 5 0 6 6 5 5 5 4 3 1 3 6 4 2 4 5 3 2 3 7 8 7 7 6 6 6 6 5 5 5
60 57 57 59 45 26 26 28 27 28 24 20 22 22 16 8 5 5 4 4 4 4 3 3 4 6 9 9 4 3 5 2 2 7 6 4 2 1 1 2 4 6 5 6 5 1 1 1 1 1 2 2 3 2 3 1 5 5 3 4 7 5 4 4 3 5 4 1 3 3 2 2 3 5 5 4 4 5 6 6 6 6 6 6 5 5 5 5
59 56 59 56 35 26 26 19 27 33 23 23 26 18 10 4 4 6 6 5 5 4 3 4 6 9 13 13 7 6 5 3 5 11 8 5 4 2 2 3 3 4 3 4 4 1 1 1 0 1 1 2 3 3 5 3 4 5 3 5 5 4 4 5 3 3 2 3 3 3 4 2 3 5 2 3 3 1 2 7 9 7 7 6 5 5 5 5
57 57 58 47 29 25 23 22 35 33 23 29 26 11 7 6 4 5 4 5 5 4 6 9 12 12 14 13 8 8 7 4 6 11 11 8 5 5 6 5 4 4 4 4 2 2 3 2 1 1 2 3 2 3 4 4 2 2 4 6 5 2 1 1 1 1 2 3 3 2 3 1 4 7 5 5 5 2 3 5 9 8 8 6 6 5 5 5
55 57 53 37 26 22 22 30 38 31 26 29 18 6 6 7 8 6 6 6 6 8 9 11 14 15 14 12 8 8 8 5 7 10 10 9 7 7 7 6 7 6 5 4 4 2 2 0 1 1 1 2 2 3 3 1 2 3 6 5 5 4 2 3 3 2 2 2 3 3 2 1 3 6 7 5 5 5 6 6 7 8 8 7 6 6 5 5
55 55 44 29 23 19 21 33 36 31 30 21 9 7 9 8 8 7 8 6 5 11 12 11 14 15 13 9 8 9 6 5 9 10 9 9 7 8 8 8 10 8 4 5 4 4 3 1 2 2 1 2 2 1 2 4 3 4 4 4 5 4 4 4 4 3 3 0 2 3 1 3 3 3 4 0 4 6 7 7 7 7 7 6 6 6 6 5
55 47 33 24 21 17 22 33 35 33 26 13 6 8 9 9 8 7 8 6 7 11 12 14 16 14 10 6 9 9 2 3 9 8 9 9 8 8 8 8 10 9 6 6 4 5 6 3 1 1 2 1 2 2 1 4 3 3 2 3 2 3 4 3 2 4 5 2 0 2 2 4 3 1 2 4 6 7 6 6 7 7 6 7 6 6 6 5
48 34 23 20 18 17 23 32 37 32 18 9 9 8 8 7 6 6 7 8 11 13 16 16 12 12 9 4 8 8 1 2 9 6 7 9 7 9 9 7 10 10 6 6 4 3 7 2 3 2 1 2 1 2 2 2 3 1 2 3 4 3 6 5 0 1 4 2 2 3 2 4 2 1 1 5 6 5 5 5 6 7 7 7 6 6 6 6
36 24 16 15 16 17 23 32 36 26 10 7 11 9 7 4 2 5 8 10 13 15 17 13 8 10 10 6 9 11 4 4 8 6 6 8 7 10 12 8 11 12 6 4 3 3 5 2 3 1 1 1 1 0 2 0 2 3 3 5 3 1 3 4 2 2 2 2 2 3 4 3 2 2 1 4 6 5 5 6 6 7 7 6 6 6 6 6
26 19 11 11 15 16 23 33 31 15 4 7 10 7 5 3 1 5 10 12 14 15 14 10 8 9 10 9 9 11 10 8 8 7 7 7 5 9 13 8 9 13 6 3 2 2 5 4 2 2 1 2 1 1 1 1 1 3 2 2 2 1 1 1 3 2 2 3 2 3 5 4 4 4 3 6 8 8 7 7 7 8 7 7 6 7 7 7
20 12 6 10 15 16 25 31 20 7 4 9 10 5 4 2 0 5 13 14 12 13 11 8 8 8 9 10 9 11 11 9 9 7 6 6 4 8 14 7 7 13 7 3 3 2 4 4 1 3 2 1 1 1 4 3 1 1 0 2 2 2 3 3 3 3 3 3 3 2 1 3 5 6 8 11 11 10 10 8 8 8 8 7 7 7 7 7
12 6 5 12 16 20 27 22 10 6 7 9 8 4 4 3 1 3 13 15 9 6 8 10 9 9 10 10 10 10 8 7 10 7 4 7 4 6 11 8 7 11 6 5 3 2 3 3 3 1 2 1 1 1 3 4 3 2 1 2 2 1 2 1 2 1 4 3 3 1 1 5 5 2 5 10 11 12 12 10 8 8 8 7 7 7 7 7
6 4 5 13 21 27 25 13 6 8 7 7 7 4 4 5 3 2 6 10 7 0 3 10 11 9 10 10 10 10 6 6 10 7 4 8 6 3 6 7 9 8 5 5 3 2 1 3 5 3 1 2 1 1 1 2 3 2 2 4 4 3 4 2 2 1 2 2 3 3 2 6 4 2 2 2 5 8 11 10 8 8 9 8 8 8 8 7
4 4 7 18 28 27 17 8 7 7 5 6 5 4 5 6 5 4 3 5 5 1 0 7 9 9 9 9 10 10 8 6 8 8 5 7 8 4 3 7 12 11 6 4 2 2 2 4 5 3 1 2 1 0 1 1 1 1 1 2 3 4 4 4 3 3 1 1 1 3 1 5 4 2 5 4 3 0 7 10 9 8 9 9 9 8 8 7
3 6 10 20 26 17 9 9 8 5 4 5 5 5 5 5 5 5 4 4 4 1 2 5 9 10 7 6 8 10 9 5 6 8 4 4 6 2 2 6 13 11 7 4 3 2 3 4 4 3 1 1 1 0 1 1 1 1 2 3 2 3 3 4 3 2 2 2 2 2 3 6 4 4 4 3 5 4 3 9 10 9 7 9 10 9 8 8
4 5 7 13 16 7 5 10 10 9 7 7 7 5 2 3 5 6 7 7 4 3 4 4 8 9 5 6 9 11 11 6 4 6 3 4 4 3 5 6 13 11 6 5 6 4 2 3 4 4 2 1 2 1 1 2 1 2 3 3 3 2 4 3 1 1 1 4 6 5 4 6 4 4 4 4 4 3 1 3 7 9 8 9 10 8 7 8
6 4 4 6 5 2 2 4 7 10 10 9 10 8 4 4 2 2 6 6 2 3 4 2 5 8 6 7 8 9 10 5 3 4 2 2 2 3 5 3 10 9 2 2 7 6 4 4 4 5 5 4 3 4 3 2 2 1 0 4 5 5 6 5 2 1 2 5 6 5 5 5 3 2 1 2 1 1 3 2 3 7 8 9 9 8 8 8
6 4 4 5 1 3 2 3 2 8 10 10 9 8 9 6 2 3 4 3 1 3 4 2 5 8 7 9 9 8 8 2 2 5 5 3 1 2 4 3 3 3 2 4 9 6 3 3 5 7 7 8 8 7 6 7 6 5 6 8 9 8 8 6 3 4 5 4 4 5 6 6 4 2 3 4 4 5 6 4 3 6 8 8 8 8 7 7
3 5 7 7 4 4 4 4 4 7 10 11 8 8 11 10 5 2 3 1 1 2 4 2 4 8 10 12 9 8 10 4 3 7 8 5 2 1 2 4 4 2 2 5 7 5 4 3 6 8 8 7 7 7 9 10 9 12 13 13 12 9 8 7 5 8 6 4 5 8 7 8 7 5 6 7 6 6 6 7 6 7 8 8 8 8 8 8
1 4 5 3 4 7 6 6 9 10 13 13 7 9 13 12 10 6 1 2 2 2 2 1 4 10 13 14 9 8 10 5 2 6 7 5 4 3 3 4 3 3 2 4 4 3 4 5 6 8 7 4 4 5 10 11 9 10 11 13 12 10 10 10 11 12 7 6 9 11 10 11 9 6 8 8 8 8 8 8 6 6 8 8 9 9 9 9
2 2 1 2 0 5 5 4 7 9 13 13 7 9 15 14 14 9 3 4 3 2 2 4 7 10 12 13 9 8 10 9 6 6 5 5 5 4 3 1 1 3 2 4 2 1 3 4 5 7 7 4 4 4 7 9 8 7 8 10 11 11 12 13 14 15 12 10 13 12 10 10 7 7 7 7 7 8 6 7 6 7 9 9 10 10 9 9
2 2 1 0 0 5 7 6 7 8 10 11 8 9 12 14 15 9 4 6 8 6 4 6 10 10 10 11 9 8 12 13 10 8 8 8 5 4 4 4 3 1 2 3 2 2 0 2 3 6 5 3 3 4 3 4 5 5 5 6 9 11 12 13 14 14 11 11 13 12 9 10 7 6 4 2 4 6 7 8 9 8 8 9 10 10 10 10
2 2 1 2 2 6 9 8 7 8 8 9 9 9 11 14 15 11 4 1 5 8 8 10 11 9 8 10 9 8 9 10 10 12 13 12 9 6 4 4 7 7 3 3 3 2 2 0 1 4 4 3 1 5 5 6 5 1 2 5 10 11 11 11 12 11 9 10 11 9 8 11 8 5 4 3 6 7 8 9 9 7 9 11 12 12 12 11
2 2 1 1 1 3 7 8 7 8 8 9 10 9 10 12 13 12 6 3 3 2 5 10 12 8 7 10 8 4 5 6 7 9 10 8 6 5 4 6 11 11 8 5 3 2 5 3 1 3 5 2 2 4 6 6 4 3 6 8 12 11 9 9 9 10 11 11 9 8 11 12 6 6 6 5 6 8 8 8 8 8 10 12 13 14 14 12
Wind_Direction
215 212 210 205 202 202 202 201 203 202 199 201 199 194 193 191 188 188 187 188 192 191 193 195 194 192 191 194 199 202 203 196 188 185 196 206 201 206 209 200 210 219 266 2 10 354 338 333 305 273 262 227 181 224 163 164 244 179 195 215 253 236 184 189 152 128 128 133 148 157 162 139 138 147 127 190 123 117 138 113 93 79 74 92 108 123 131 138
214 212 210 205 201 201 202 202 203 201 197 200 201 196 193 192 188 187 187 188 190 191 190 191 194 193 191 193 196 199 195 184 181 202 215 213 202 201 198 187 196 210 289 357 11 357 319 313 299 266 246 243 180 164 154 159 176 208 230 221 237 226 180 108 103 101 130 145 151 160 179 153 148 157 144 171 144 141 150 142 136 109 96 110 119 128 134 141
212 211 210 203 201 201 200 202 202 200 197 199 200 196 194 191 188 187 187 188 189 190 188 187 189 189 189 189 191 195 185 162 209 240 228 217 207 196 185 187 184 176 335 348 0 330 296 293 290 274 233 248 210 170 184 173 181 209 227 250 241 133 78 52 79 65 105 139 147 154 173 138 146 145 139 186 158 165 182 161 158 143 141 145 137 141 145 149
212 210 209 203 201 199 199 202 201 200 198 197 196 194 193 190 187 187 186 188 188 189 190 188 185 186 190 187 192 189 157 99 265 228 226 217 206 191 178 182 173 152 304 320 335 306 293 291 285 270 233 248 228 202 202 179 177 193 192 242 299 82 81 49 65 48 63 131 141 140 134 118 137 131 152 194 161 181 211 172 174 171 152 152 151 151 156 158
213 209 208 203 199 197 199 202 200 199 197 196 194 192 191 188 186 185 183 186 187 188 189 189 189 191 191 186 188 175 139 93 201 194 213 213 202 189 178 180 169 161 281 292 324 299 287 286 280 260 233 251 232 216 211 198 192 223 198 137 331 350 91 61 57 32 8 118 123 134 144 126 113 120 186 214 162 172 267 149 163 166 152 153 156 154 161 164
213 206 204 201 198 197 200 201 200 199 197 195 192 189 188 186 185 182 182 183 184 186 185 187 187 187 189 185 181 171 161 193 156 185 200 198 199 189 179 177 172 220 272 261 281 279 276 274 271 251 217 244 240 221 218 206 188 224 218 108 1 3 96 79 56 7 347 111 128 145 137 119 128 153 203 243 118 121 12 28 56 112 140 149 151 153 164 169
214 204 200 200 199 198 201 201 199 197 195 192 187 185 185 184 184 181 180 181 182 181 179 183 182 179 177 168 164 178 233 222 131 187 191 187 194 185 177 174 184 231 244 230 236 242 257 258 256 243 210 233 244 219 223 207 177 225 243 111 48 39 82 80 83 2 7 81 116 125 120 130 165 159 132 240 122 120 87 48 55 103 130 141 148 158 170 172
216 205 197 198 198 198 201 198 196 195 190 186 183 182 182 181 181 179 178 180 180 177 176 179 178 174 166 154 145 184 244 206 149 153 184 179 175 173 172 175 198 218 212 214 221 223 241 251 246 239 214 225 236 216 222 208 187 229 224 119 114 79 89 93 105 79 43 54 72 115 122 113 137 118 57 186 144 130 113 86 70 108 131 142 153 166 173 173
217 206 196 195 196 196 198 195 195 193 185 182 180 179 180 179 178 176 176 177 178 175 173 176 176 170 163 156 146 187 203 172 148 131 171 170 167 172 174 181 199 202 205 214 221 230 235 243 241 238 230 233 237 220 209 205 211 216 167 124 127 109 114 120 115 108 87 79 141 141 118 74 87 118 226 180 136 130 124 107 100 115 136 151 157 169 175 173
214 204 194 192 192 193 195 193 192 188 181 180 179 177 177 178 177 174 174 175 175 173 172 176 174 165 160 156 159 196 190 171 167 151 157 164 169 174 174 184 191 189 201 213 221 231 235 245 247 244 254 273 260 222 187 199 207 145 125 106 117 117 124 136 120 118 108 86 264 175 123 100 102 122 197 147 130 136 130 127 138 141 154 166 161 170 177 176
209 202 193 189 190 191 192 190 189 185 181 177 174 174 174 174 174 172 173 173 172 170 173 176 169 163 162 164 179 190 173 179 185 175 151 157 167 170 173 183 186 190 198 209 229 229 228 244 256 268 251 285 279 223 170 218 117 123 124 94 104 114 107 126 124 134 128 96 279 254 114 110 94 114 188 148 143 152 143 147 165 169 175 177 169 168 174 179
203 197 191 188 188 189 189 187 185 182 179 175 171 171 170 171 170 170 170 167 167 167 170 170 165 163 160 171 201 179 140 180 186 189 167 158 163 167 177 191 196 203 204 207 237 234 228 242 263 275 257 255 257 200 165 207 98 142 140 111 133 128 115 142 132 151 177 141 262 296 98 136 191 206 174 144 152 160 157 161 167 185 191 183 176 166 170 180
198 193 188 184 185 185 186 186 183 178 173 170 171 169 167 169 168 169 167 161 162 164 166 166 163 160 156 175 215 162 194 187 180 184 174 166 164 162 169 182 193 206 209 214 241 248 237 245 267 273 272 288 248 287 225 155 132 184 170 125 152 146 146 163 130 153 162 130 272 58 123 233 211 193 147 141 155 149 160 168 165 184 191 182 172 161 170 180
194 190 184 181 181 182 183 183 179 174 169 166 168 166 164 166 165 167 164 160 161 162 165 165 158 153 158 219 163 151 218 196 175 172 170 168 161 155 160 170 187 208 215 222 244 266 252 247 266 279 275 272 264 329 282 167 150 199 193 140 159 162 167 162 148 170 148 36 247 128 221 261 180 148 135 154 163 151 165 177 173 178 178 179 171 164 173 181
189 186 182 179 178 180 180 177 172 168 167 165 162 160 158 158 159 160 160 159 160 158 158 156 149 143 141 319 170 167 194 190 178 176 173 168 156 150 154 163 188 219 223 228 243 264 266 246 248 265 264 205 202 273 206 176 178 203 199 176 178 160 148 151 177 186 156 185 214 174 212 260 121 135 148 165 172 170 185 188 174 169 171 174 174 177 178 182
184 182 179 177 177 179 175 169 166 162 161 159 156 153 150 149 150 151 153 154 153 153 149 146 147 129 88 80 167 174 190 193 192 186 177 174 169 155 147 158 192 223 228 234 240 254 260 240 223 253 257 186 205 221 187 177 200 210 199 182 183 164 149 174 249 229 177 142 194 227 229 195 143 163 164 171 179 180 207 208 176 167 172 174 176 184 182 179
179 178 176 174 175 174 170 165 162 158 156 151 147 144 141 140 140 140 145 145 141 140 130 136 160 123 50 165 153 173 193 186 185 181 170 170 168 152 143 148 191 210 222 231 230 238 235 218 194 221 236 214 209 210 198 192 197 200 191 194 191 165 153 165 185 262 205 163 187 218 249 233 164 162 174 189 177 170 204 215 190 176 174 176 178 179 183 181
174 174 172 172 173 170 167 163 159 156 151 145 139 137 134 132 133 133 135 133 128 124 101 122 171 149 211 188 179 184 184 168 165 170 162 159 157 151 152 155 172 191 208 220 209 207 204 197 181 195 209 207 208 212 209 192 189 189 184 194 186 164 162 168 172 187 183 194 191 183 231 252 192 162 182 198 181 174 195 202 195 188 179 179 182 183 184 181
171 172 169 169 170 167 163 159 156 152 144 138 133 129 124 121 125 128 130 131 128 127 117 167 182 188 162 181 188 172 162 157 156 161 159 151 143 147 161 167 168 181 191 206 194 193 194 164 177 206 205 200 204 217 223 196 185 184 188 196 177 169 171 158 145 163 165 172 194 181 205 236 223 190 185 192 191 182 187 191 189 187 183 181 182 187 183 181
169 168 166 166 166 164 161 156 153 148 142 136 131 124 120 124 127 134 138 142 171 215 164 170 189 261 118 159 152 134 140 147 143 155 166 152 134 138 159 168 169 192 200 198 184 183 187 182 200 207 205 201 203 223 236 229 204 179 189 210 182 165 146 87 92 20 137 146 207 212 212 229 231 218 194 179 184 188 190 195 196 190 189 191 191 193 187 183
167 165 165 164 163 161 158 154 151 148 145 141 138 131 146 155 150 164 159 167 222 246 149 163 191 260 79 136 137 132 132 134 124 149 167 153 137 140 161 179 175 200 214 203 177 166 182 205 212 203 212 206 199 221 234 243 237 185 184 206 186 165 126 49 83 129 49 88 210 217 224 241 236 237 228 176 174 192 196 197 204 198 193 196 194 195 189 169
165 165 164 163 161 159 156 153 150 149 147 146 147 144 174 178 202 151 150 136 220 245 208 167 190 215 101 140 148 145 135 124 124 148 164 157 148 149 158 183 183 191 218 215 179 160 191 218 208 197 215 216 208 222 223 247 258 193 179 191 184 164 121 48 23 83 75 68 197 200 222 253 248 238 240 211 200 205 198 196 200 197 196 198 196 196 188 157
165 164 163 162 160 157 154 152 150 151 152 152 159 184 174 184 148 140 140 88 167 238 187 168 185 146 128 156 171 163 143 139 140 160 173 164 155 157 158 179 191 191 215 219 190 173 192 211 208 195 204 211 210 215 207 253 276 206 175 184 183 164 143 115 270 107 20 90 83 28 289 271 267 257 242 224 221 211 186 185 182 181 186 185 179 178 172 157
163 161 160 158 157 156 154 152 151 156 157 157 169 184 165 160 146 141 133 78 130 333 139 164 177 142 146 153 172 181 142 135 134 158 176 169 151 155 165 178 190 195 216 218 205 194 185 185 288 215 199 203 193 191 195 206 262 275 165 176 176 164 143 103 147 140 39 47 103 43 339 289 235 230 243 225 205 193 159 158 168 180 184 162 128 125 152 155
160 159 156 155 155 154 152 150 153 160 158 161 182 191 158 157 161 153 128 101 130 18 124 175 198 147 151 136 139 138 117 93 48 154 173 174 157 148 166 180 193 204 212 217 206 192 199 215 359 205 192 194 179 186 195 179 216 279 10 270 172 154 123 105 131 130 92 243 245 125 52 291 232 211 226 199 172 194 168 169 198 204 197 193 204 205 189 183
157 156 154 155 154 152 151 150 158 159 156 178 199 200 172 169 180 181 142 103 140 129 152 174 181 161 163 147 126 112 129 131 349 139 163 173 160 140 169 173 184 210 204 210 215 181 184 5 17 188 183 180 181 199 192 175 190 195 233 317 114 129 120 130 150 142 128 200 267 128 157 259 285 244 214 167 170 199 174 201 222 197 177 190 207 200 177 181
157 156 156 156 155 154 152 151 157 157 162 197 196 201 200 187 192 204 157 106 173 154 150 169 220 169 162 159 154 142 152 150 81 111 161 166 144 112 174 172 159 228 204 167 210 239 95 81 292 183 161 164 175 203 198 185 193 216 278 315 111 124 130 148 156 151 150 133 23 355 162 193 292 290 203 139 157 191 194 224 230 183 165 172 177 166 147 151
157 157 158 158 159 159 155 150 154 160 179 187 189 201 203 193 199 211 143 150 175 141 137 142 131 150 133 88 145 134 142 139 133 166 146 134 139 90 155 187 174 191 336 143 186 267 55 150 185 141 142 168 169 263 258 175 159 254 275 281 126 128 138 145 136 118 115 100 81 257 189 130 263 266 218 121 155 201 216 209 201 176 164 158 144 132 126 121
158 159 160 159 159 158 156 155 157 164 172 179 189 192 188 190 200 183 158 176 152 120 135 134 137 142 128 119 120 101 139 142 142 145 127 138 208 105 180 207 165 122 32 79 158 297 353 186 215 124 146 166 133 347 312 73 115 215 243 344 83 99 114 125 123 103 80 96 214 220 186 154 269 247 195 160 186 215 220 196 175 162 151 140 130 131 136 125
160 160 159 159 158 154 151 155 163 167 170 177 181 177 173 181 182 157 185 193 138 125 135 130 152 149 146 150 147 163 156 104 92 128 138 164 168 256 254 211 129 108 50 46 83 46 285 199 280 71 137 173 131 83 322 359 124 148 163 81 66 56 54 66 83 88 84 251 245 232 186 129 278 257 196 185 212 210 197 163 140 134 134 131 132 144 146 138
161 161 159 160 160 155 148 151 169 172 173 171 168 167 162 165 186 169 174 166 125 125 140 133 141 147 157 160 160 174 154 94 133 142 153 170 160 196 198 152 112 97 82 61 60 44 38 35 18 69 317 237 148 84 359 0 114 116 128 116 84 37 31 35 17 56 112 231 259 317 347 61 224 258 230 191 216 229 160 155 150 146 144 141 138 137 132 134
161 160 159 160 156 154 156 159 169 174 172 165 161 160 158 151 194 189 148 145 150 168 172 157 153 157 167 164 158 165 144 120 162 155 154 164 171 185 184 172 151 134 158 151 113 86 69 61 121 66 295 243 161 100 30 349 352 117 147 130 106 87 66 80 236 181 180 238 266 321 334 286 229 252 255 224 195 145 66 131 147 147 144 141 137 131 127 135
160 159 159 159 154 155 161 163 171 175 168 164 161 159 156 159 188 180 145 166 171 161 162 158 155 157 162 163 159 160 141 139 173 163 156 162 167 186 202 188 169 175 182 146 131 122 68 31 166 95 287 224 174 136 135 215 255 185 162 143 132 139 147 179 190 185 195 266 291 300 300 255 266 266 257 244 181 137 88 92 116 129 137 141 141 138 133 128
157 157 157 157 156 156 161 168 176 173 164 167 172 158 156 170 187 164 154 180 154 145 150 146 145 151 161 165 157 155 142 148 168 160 157 166 171 187 201 192 185 189 163 133 158 167 143 212 189 149 194 172 164 191 153 155 178 199 177 150 156 159 160 174 172 173 176 144 313 303 270 187 208 248 235 229 84 98 91 90 96 98 114 123 125 130 124 111
155 155 154 154 160 159 162 173 177 170 165 171 165 159 169 177 181 168 162 162 143 142 141 139 144 152 164 162 155 162 136 148 171 166 165 176 183 184 188 192 194 191 159 153 179 173 167 198 305 250 258 172 142 292 345 122 167 228 160 118 194 192 146 136 159 170 150 111 240 240 242 215 198 202 171 104 78 84 94 104 107 106 118 124 125 132 125 110
152 153 151 155 166 165 164 173 173 172 177 171 154 174 190 179 172 168 157 148 151 146 137 142 151 157 160 150 161 175 346 132 171 173 171 181 187 186 188 189 189 195 181 157 159 167 167 186 327 295 305 21 85 305 337 132 182 227 119 159 214 164 115 112 109 43 106 131 213 186 253 281 268 256 149 115 105 108 125 133 132 134 141 139 136 134 124 115
151 153 151 158 171 169 167 171 172 176 195 178 168 180 181 179 189 159 142 138 145 144 141 149 166 168 163 158 170 176 158 145 172 175 170 181 192 189 191 191 185 194 196 148 163 194 151 118 335 339 46 346 215 267 350 163 140 109 148 196 198 79 78 113 125 20 78 185 222 169 204 244 210 229 229 136 156 170 172 172 155 148 152 149 142 132 121 115
148 149 147 161 172 167 165 169 172 179 208 184 180 178 157 168 226 149 138 137 143 149 152 156 167 176 169 163 171 172 162 161 179 179 166 178 197 186 186 190 186 191 191 100 151 173 121 109 339 344 12 261 245 119 173 242 121 133 188 200 125 106 270 161 155 163 157 192 251 226 216 217 198 201 189 187 198 194 189 186 164 161 167 156 143 134 120 112
143 144 143 163 170 164 162 166 171 179 194 187 185 178 137 119 269 149 142 141 145 154 163 160 159 171 172 165 160 165 172 171 171 172 170 181 203 189 183 178 180 189 180 116 154 154 106 122 208 309 299 248 332 108 185 204 194 165 352 36 77 147 177 174 187 177 149 176 230 249 236 242 234 207 183 195 202 189 184 185 175 175 175 161 148 141 132 130
149 143 133 157 161 156 156 159 168 186 193 190 177 158 127 121 306 155 144 146 148 157 168 164 160 162 165 163 155 163 178 168 164 176 182 172 176 196 190 172 165 179 151 95 137 140 80 101 138 263 308 199 190 211 186 180 178 176 137 145 171 153 121 143 252 176 132 160 206 202 267 260 254 234 186 195 197 189 183 178 176 176 168 154 146 146 146 146
159 142 132 156 155 152 152 154 180 188 190 183 168 143 135 139 136 115 129 139 140 58 177 163 164 163 159 160 160 166 169 157 168 181 173 171 175 209 206 172 155 157 118 90 129 145 84 89 123 149 183 161 180 322 58 127 163 171 170 181 179 148 122 125 263 256 115 140 180 165 235 271 266 344 356 192 184 187 178 166 165 168 161 151 146 153 156 149
156 129 131 154 158 157 157 163 183 186 183 174 155 115 130 137 133 130 102 115 122 42 173 161 164 163 161 162 161 165 161 154 177 181 168 180 180 185 206 159 150 155 145 123 140 152 104 91 106 126 165 162 150 41 70 90 146 142 220 214 169 163 161 152 195 233 182 141 134 126 208 275 270 338 6 15 8 239 166 156 159 164 158 150 149 155 152 137
128 106 116 150 164 171 170 167 174 184 182 153 104 92 130 135 131 143 142 134 134 120 128 152 162 164 164 154 150 159 157 151 185 179 149 157 169 213 283 156 148 155 155 140 154 151 96 98 107 90 37 352 346 124 67 16 78 151 242 216 167 186 185 158 171 178 154 175 146 125 244 266 282 341 360 359 354 354 134 149 155 161 155 150 154 156 146 130
112 91 95 149 171 192 185 174 176 179 176 146 119 116 128 112 126 151 161 157 156 154 137 141 160 161 152 137 148 165 163 157 193 181 135 147 166 330 316 171 156 157 164 173 175 170 142 136 126 111 99 27 2 351 330 320 218 216 229 186 156 105 102 116 164 71 125 208 170 153 234 257 280 338 349 349 2 13 50 146 155 161 161 156 156 152 139 130
127 81 60 147 178 246 201 192 185 175 167 147 142 145 126 88 77 146 150 142 123 132 131 123 141 133 122 128 139 165 167 148 165 167 110 112 168 338 327 208 167 164 176 168 156 147 151 160 140 134 157 172 184 205 210 199 185 207 206 161 175 172 146 152 177 136 226 227 173 168 228 255 295 336 331 323 345 196 223 232 147 150 157 158 156 150 142 140
142 115 108 147 224 289 272 311 216 177 167 155 152 153 144 130 35 9 98 114 14 83 104 109 119 110 124 144 139 163 176 117 68 160 148 127 151 321 332 347 126 135 54 120 143 131 127 176 171 167 182 189 194 203 173 135 135 180 200 188 188 196 184 161 135 175 207 212 194 215 229 245 273 253 229 243 221 210 214 203 158 147 155 159 156 150 144 145
133 144 155 158 175 213 235 264 214 181 171 166 161 160 155 144 132 57 27 40 204 120 80 63 139 140 155 159 151 167 175 136 79 160 155 136 118 44 358 21 59 49 28 130 146 122 113 193 199 189 201 197 189 192 163 149 170 192 197 197 194 191 178 165 191 213 194 163 231 243 227 237 245 206 212 232 214 210 210 195 187 167 160 156 148 146 146 147
87 149 168 155 169 187 198 214 200 179 167 168 163 154 156 151 153 158 48 63 157 155 92 62 184 174 167 164 158 159 162 141 120 160 146 128 133 110 40 19 33 337 344 129 139 101 134 196 208 194 208 193 132 150 160 165 187 193 192 199 195 180 172 182 212 223 194 170 231 237 215 228 240 205 212 220 198 202 202 186 174 153 151 152 150 154 157 157
25 100 135 4 2 171 150 145 177 173 165 168 167 163 165 165 164 161 119 111 144 225 188 166 187 185 170 166 160 153 164 167 174 182 155 133 145 132 100 64 0 337 17 124 137 36 135 194 195 179 202 200 117 125 162 171 183 191 195 195 185 180 187 197 215 225 216 211 232 238 231 240 237 199 217 225 194 191 176 154 157 158 157 157 158 163 169 170
19 49 104 31 101 151 142 138 161 168 167 171 175 174 173 172 166 153 123 145 166 192 203 175 174 175 167 168 169 174 185 183 175 172 148 134 154 169 159 167 155 51 41 128 129 12 135 214 175 151 186 216 135 105 109 138 155 183 200 182 171 180 195 207 220 225 223 227 241 250 261 267 243 185 192 209 145 137 135 156 177 176 159 155 163 173 178 180
321 298 211 161 125 143 156 164 168 166 169 181 185 174 174 179 169 148 106 94 163 176 187 171 159 155 159 173 182 187 188 181 169 165 158 156 170 179 172 163 148 141 144 141 124 97 133 251 33 111 154 229 169 110 90 65 63 56 249 189 176 180 194 207 217 218 210 219 238 249 257 258 241 164 140 144 140 144 159 173 181 177 166 167 176 185 188 186
334 294 288 158 96 147 165 165 171 177 177 184 183 171 174 179 164 146 130 31 34 118 174 158 148 145 158 173 185 175 138 132 139 150 150 142 137 128 125 145 149 149 153 148 130 117 134 132 68 122 158 230 354 101 113 76 44 272 243 206 190 193 201 208 222 225 212 207 215 224 234 240 217 158 173 191 175 176 182 179 179 182 182 184 188 190 190 188